Weather History for Winchester, TN

Change the Weather History Date:

Friday, August 2, 2013

  Actual Average (KTHA) Record (KTHA)
Temperature  
Mean Temperature 73 °F -  
Max Temperature 86 °F 86 °F 84 °F (2013)
Min Temperature 60 °F 65 °F 60 °F (2013)
Cooling Degree Days 8    
Growing Degree Days 23 (Base 50)    
Moisture  
Dew Point 64 °F    
Average Humidity 76    
Maximum Humidity 100    
Minimum Humidity 40    
Precipitation  
Precipitation 0.00 in - - ()
Sea Level Pressure  
Sea Level Pressure 30.05 in    
Wind  
Wind Speed 1 mph (WSW)    
Max Wind Speed 5 mph    
Max Gust Speed -    
Visibility 7 miles    
Events      
Averages and records for this station are not official NWS values.
T = Trace of Precipitation, MM = Missing Value Source: NWS Daily Summary

Daily Weather History Graph

Daily Weather History Graph

Search for Another Location

Airport:

Trip Planner

Search our weather history database for the weather conditions in past years. The results will help you decide how hot, cold, wet, or windy it might be!

Date:

Astronomy

Aug. 02, 2013 Rise Set
Actual Time 6:54 AM EDT 8:46 PM EDT
Civil Twilight 6:26 AM EDT 9:13 PM EDT
Nautical Twilight 5:52 AM EDT 9:47 PM EDT
Astronomical Twilight 5:16 AM EDT 10:23 PM EDT
Moon 3:16 AM EDT (8/2) 5:41 PM EDT (8/2)
Length of Visible Light 14h 47m
Length of Day
13h 51m
Waning Crescent, 16% of the Moon is Illuminated
Aug 2
Waning Crescent
Aug 6
New
Aug 14
First Quarter
Aug 20
Full
Aug 28
Last Quarter

Hourly Weather History & Observations

Time (EDT) Temp. Heat Index Dew Point Humidity Pressure Visibility Wind Dir Wind Speed Gust Speed Precip Events Conditions
12:15 AM 66.2 °F - 66.2 °F 100% 30.04 in 3.0 mi Calm Calm - N/A   Clear
12:35 AM 68.0 °F - 66.2 °F 94% 30.05 in 5.0 mi Calm Calm - N/A   Clear
12:55 AM 66.2 °F - 64.4 °F 94% 30.05 in 3.0 mi Calm Calm - N/A   Clear
1:35 AM 64.4 °F - 64.4 °F 100% 30.04 in 1.0 mi Calm Calm - N/A   Mostly Cloudy
1:55 AM 66.2 °F - 64.4 °F 94% 30.03 in 3.0 mi Calm Calm - N/A   Clear
2:15 AM 64.4 °F - 64.4 °F 100% 30.03 in 0.2 mi Calm Calm - N/A   Overcast
2:35 AM 64.4 °F - 64.4 °F 100% 30.02 in 0.8 mi Calm Calm - N/A   Mostly Cloudy
2:55 AM 64.4 °F - 62.6 °F 94% 30.02 in 0.2 mi Calm Calm - N/A   Overcast
3:15 AM 64.4 °F - 62.6 °F 94% 30.03 in 0.8 mi Calm Calm - N/A   Overcast
3:35 AM 64.4 °F - 62.6 °F 94% 30.02 in 0.8 mi Calm Calm - N/A   Mostly Cloudy
3:55 AM 64.4 °F - 64.4 °F 100% 30.02 in 2.5 mi Calm Calm - N/A   Partly Cloudy
4:15 AM 62.6 °F - 62.6 °F 100% 30.02 in 2.0 mi Calm Calm - N/A   Scattered Clouds
4:35 AM 62.6 °F - 62.6 °F 100% 30.02 in 0.2 mi Calm Calm - N/A   Overcast
4:55 AM 62.6 °F - 60.8 °F 94% 30.02 in 0.8 mi Calm Calm - N/A   Overcast
5:15 AM 62.6 °F - 62.6 °F 100% 30.03 in 0.5 mi Calm Calm - N/A   Overcast
5:35 AM 62.6 °F - 60.8 °F 94% 30.03 in 0.2 mi Calm Calm - N/A   Overcast
5:55 AM 62.6 °F - 60.8 °F 94% 30.03 in 1.2 mi Calm Calm - N/A   Mostly Cloudy
6:15 AM 60.8 °F - 60.8 °F 100% 30.04 in 3.0 mi Calm Calm - N/A   Partly Cloudy
6:35 AM 60.8 °F - 60.8 °F 100% 30.04 in 1.8 mi Calm Calm - N/A   Mostly Cloudy
6:55 AM 60.8 °F - 60.8 °F 100% 30.05 in 0.8 mi Calm Calm - N/A   Overcast
7:15 AM 60.8 °F - 60.8 °F 100% 30.05 in 3.0 mi Calm Calm - N/A   Mostly Cloudy
7:35 AM 62.6 °F - 60.8 °F 94% 30.04 in 1.2 mi Calm Calm - N/A   Mostly Cloudy
7:55 AM 62.6 °F - 60.8 °F 94% 30.05 in 0.2 mi Calm Calm - N/A   Overcast
8:15 AM 62.6 °F - 62.6 °F 100% 30.07 in 0.5 mi Calm Calm - N/A   Mostly Cloudy
8:35 AM 64.4 °F - 64.4 °F 100% 30.06 in 5.0 mi Calm Calm - N/A   Partly Cloudy
8:55 AM 66.2 °F - 66.2 °F 100% 30.06 in 6.0 mi Calm Calm - N/A   Clear
9:15 AM 66.2 °F - 66.2 °F 100% 30.06 in 5.0 mi Calm Calm - N/A   Clear
9:35 AM 69.8 °F - 66.2 °F 88% 30.06 in 9.0 mi Calm Calm - N/A   Clear
9:55 AM 71.6 °F - 68.0 °F 88% 30.05 in 10.0 mi Calm Calm - N/A   Clear
10:15 AM 75.2 °F - 66.2 °F 73% 30.06 in 10.0 mi Calm Calm - N/A   Clear
10:35 AM 75.2 °F - 66.2 °F 73% 30.06 in 10.0 mi Calm Calm - N/A   Clear
10:55 AM 78.8 °F - 66.2 °F 65% 30.07 in 10.0 mi Variable 3.5 mph - N/A   Clear
11:15 AM 78.8 °F - 66.2 °F 65% 30.07 in 10.0 mi East 3.5 mph - N/A   Clear
11:35 AM 80.6 °F 82.7 °F 66.2 °F 61% 30.07 in 10.0 mi South 3.5 mph - N/A   Clear
11:55 AM 80.6 °F 82.3 °F 64.4 °F 58% 30.08 in 10.0 mi Calm Calm - N/A   Clear
12:15 PM 82.4 °F 83.9 °F 64.4 °F 54% 30.07 in 10.0 mi Calm Calm - N/A   Mostly Cloudy
12:35 PM 82.4 °F 83.4 °F 62.6 °F 51% 30.08 in 10.0 mi SW 3.5 mph - N/A   Partly Cloudy
12:55 PM 82.4 °F 83.9 °F 64.4 °F 54% 30.07 in 10.0 mi Variable 4.6 mph - N/A   Clear
1:15 PM 82.4 °F 83.4 °F 62.6 °F 51% 30.07 in 10.0 mi Calm Calm - N/A   Clear
1:35 PM 82.4 °F 82.9 °F 60.8 °F 48% 30.07 in 10.0 mi Calm Calm - N/A   Partly Cloudy
1:55 PM 82.4 °F 83.9 °F 64.4 °F 54% 30.07 in 10.0 mi Calm Calm - N/A   Partly Cloudy
2:15 PM 84.2 °F 85.0 °F 62.6 °F 48% 30.07 in 10.0 mi Calm Calm - N/A   Clear
2:35 PM 84.2 °F 85.0 °F 62.6 °F 48% 30.07 in 10.0 mi Calm Calm - N/A   Clear
2:55 PM 84.2 °F 85.0 °F 62.6 °F 48% 30.07 in 10.0 mi Variable 3.5 mph - N/A   Mostly Cloudy
3:15 PM 84.2 °F 85.0 °F 62.6 °F 48% 30.07 in 10.0 mi Calm Calm - N/A   Scattered Clouds
3:35 PM 84.2 °F 85.0 °F 62.6 °F 48% 30.06 in 10.0 mi Calm Calm - N/A   Clear
3:55 PM 86.0 °F 86.6 °F 62.6 °F 45% 30.05 in 10.0 mi Calm Calm - N/A   Clear
4:15 PM 84.2 °F 84.4 °F 60.8 °F 45% 30.05 in 10.0 mi South 3.5 mph - N/A   Clear
4:35 PM 86.0 °F 85.4 °F 59.0 °F 40% 30.05 in 10.0 mi Calm Calm - N/A   Clear
4:55 PM 86.0 °F 87.3 °F 64.4 °F 48% 30.04 in 10.0 mi Calm Calm - N/A   Clear
5:15 PM 84.2 °F 85.0 °F 62.6 °F 48% 30.03 in 10.0 mi Variable 3.5 mph - N/A   Partly Cloudy
5:35 PM 84.2 °F 85.6 °F 64.4 °F 51% 30.04 in 10.0 mi North 4.6 mph - N/A   Scattered Clouds
5:55 PM 82.4 °F 83.9 °F 64.4 °F 54% 30.04 in 10.0 mi NNW 3.5 mph - N/A   Clear
6:15 PM 82.4 °F 83.9 °F 64.4 °F 54% 30.04 in 10.0 mi Variable 3.5 mph - N/A   Clear
6:35 PM 82.4 °F 83.9 °F 64.4 °F 54% 30.04 in 10.0 mi WNW 4.6 mph - N/A   Clear
6:55 PM 82.4 °F 84.6 °F 66.2 °F 58% 30.04 in 10.0 mi WNW 3.5 mph - N/A   Clear
7:15 PM 82.4 °F 84.6 °F 66.2 °F 58% 30.04 in 10.0 mi WNW 3.5 mph - N/A   Clear
7:35 PM 82.4 °F 83.9 °F 64.4 °F 54% 30.03 in 10.0 mi Calm Calm - N/A   Clear
7:55 PM 82.4 °F 84.6 °F 66.2 °F 58% 30.03 in 10.0 mi Calm Calm - N/A   Clear
8:15 PM 80.6 °F 82.3 °F 64.4 °F 58% 30.04 in 10.0 mi Calm Calm - N/A   Clear
8:35 PM 78.8 °F - 69.8 °F 74% 30.03 in 10.0 mi Calm Calm - N/A   Clear
8:55 PM 73.4 °F - 68.0 °F 83% 30.03 in 10.0 mi Calm Calm - N/A   Clear
9:15 PM 73.4 °F - 68.0 °F 83% 30.04 in 10.0 mi Calm Calm - N/A   Clear
9:35 PM 73.4 °F - 69.8 °F 88% 30.04 in 10.0 mi SSE 4.6 mph - N/A   Clear
9:55 PM 71.6 °F - 68.0 °F 88% 30.05 in 10.0 mi Calm Calm - N/A   Clear
10:15 PM 71.6 °F - 68.0 °F 88% 30.06 in 10.0 mi Calm Calm - N/A   Clear
10:35 PM 71.6 °F - 68.0 °F 88% 30.06 in 10.0 mi Calm Calm - N/A   Clear
10:55 PM 71.6 °F - 68.0 °F 88% 30.05 in 10.0 mi Calm Calm - N/A   Clear
11:15 PM 71.6 °F - 66.2 °F 83% 30.06 in 10.0 mi Calm Calm - N/A   Clear
11:35 PM 69.8 °F - 66.2 °F 88% 30.06 in 10.0 mi Calm Calm - N/A   Clear
11:55 PM 69.8 °F - 66.2 °F 88% 30.06 in 10.0 mi Calm Calm - N/A   Clear